Hourly Data Report for October 06, 2015

All times are specified in Local Standard Time (LST). Add 1 hour to adjust for Daylight Saving Time where and when it is observed.

TORONTO INTL A
ONTARIO

43°40'36.000" N
79°37'50.000" W
173.40 m
6158731
71624
YYZ

Download Data

Hourly Data (October 2015)
Hourly Data Report for October 6, 2015
Temp Definition
°C
Dew Point Temp Definition
°C
Rel Hum Definition
%
Wind Dir Definition
10's deg

Wind Spd Definition
km/h
Visibility Definition
km
Stn Press Definition
kPa
Hmdx Definition


Wind Chill Definition


Weather Definition


TIME
00:00 Legend Double Dagger 12.9 10.8 87 1 5 12.9 99.96     LegendNANA
01:00 Legend Double Dagger 12.6 11.0 90 36 5 12.9 99.93     Cloudy
02:00 Legend Double Dagger 12.6 11.0 90 35 5 12.9 99.92     LegendNANA
03:00 Legend Double Dagger 12.7 11.3 91 35 8 12.9 99.89     LegendNANA
04:00 Legend Double Dagger 12.4 11.3 93 36 11 9.7 99.89     Fog
05:00 Legend Double Dagger 12.2 11.0 92 36 7 9.7 99.90     Drizzle,Fog
06:00 Legend Double Dagger 12.4 11.0 91 31 7 24.1 99.91     LegendNANA
07:00 Legend Double Dagger 13.0 10.9 87 1 7 24.1 99.91     Cloudy
08:00 Legend Double Dagger 13.4 10.6 83 28 5 24.1 99.92     LegendNANA
09:00 Legend Double Dagger 14.1 10.6 79 28 4 24.1 99.92     LegendNANA
10:00 Legend Double Dagger 14.9 10.2 73 33 7 24.1 99.92     Cloudy
11:00 Legend Double Dagger 15.4 11.0 75 31 6 24.1 99.91     LegendNANA
12:00 Legend Double Dagger 16.5 11.1 70 27 8 24.1 99.86     LegendNANA
13:00 Legend Double Dagger 15.9 11.1 73 34 5 24.1 99.80     Cloudy
14:00 Legend Double Dagger 16.0 11.0 72 27 13 24.1 99.73     LegendNANA
15:00 Legend Double Dagger 16.1 10.9 71 32 15 24.1 99.69     LegendNANA
16:00 Legend Double Dagger 16.1 10.3 68 30 13 24.1 99.68     Cloudy
17:00 Legend Double Dagger 15.3 9.7 69 30 18 24.1 99.69     LegendNANA
18:00 Legend Double Dagger 14.6 9.0 69 34 15 24.1 99.70     LegendNANA
19:00 Legend Double Dagger 14.5 8.7 68 31 16 24.1 99.70     Cloudy
20:00 Legend Double Dagger 14.6 8.6 67 30 14 24.1 99.69     LegendNANA
21:00 Legend Double Dagger 14.6 8.6 67 32 12 24.1 99.68     LegendNANA
22:00 Legend Double Dagger 13.7 8.8 72 28 8 24.1 99.67     Mostly Cloudy
23:00 Legend Double Dagger 12.4 8.5 77 24 12 24.1 99.64     LegendNANA

Notes on Data Quality.

Legend

  • E = Estimated
  • M = Missing
  • NA = Not Available
  • ‡ = Partner data that is not subject to review by the National Climate Archives
Date modified: